This demonstration page uses our WeatherBlox Daily Observations layout. Learn more.

38.89511, -77.03637

Hourly Observations for September 6, 2015

Temp ( °F °C ) Dew Point ( °F °C ) Humidity (%) Winds ( mph kmh ) Pressure ( in mb ) Visibility ( mi km ) Precip ( " mm )
12:52 am 00:52 Mostly Cloudy 73 23 63 17 69 69 ENE 6 9 30.21 1023 10 16.09344 0 0
1:52 am 01:52 Partly Cloudy 72 22 63 17 73 73 E 3 6 30.21 1023 10 16.09344 0 0
2:52 am 02:52 Mostly Clear 72 22 63 17 73 73 ENE 5 7 30.21 1023 10 16.09344 0 0
3:52 am 03:52 Mostly Clear 70 21 63 17 78 78 E 5 7 30.21 1023 10 16.09344 0 0
4:52 am 04:52 Mostly Clear 70 21 63 17 78 78 ENE 5 7 30.21 1023 10 16.09344 0 0
5:52 am 05:52 Partly Cloudy 70 21 64 18 83 83 NNE 6 9 30.21 1023 10 16.09344 0 0
6:52 am 06:52 Mostly Cloudy 70 21 64 18 83 83 ENE 5 7 30.21 1023 10 16.09344 0 0
7:52 am 07:52 Mostly Cloudy 72 22 64 18 78 78 NE 5 7 30.21 1023 10 16.09344 0 0
8:52 am 08:52 Mostly Cloudy 72 22 64 18 78 78 ENE 6 9 30.21 1023 10 16.09344 0 0
9:52 am 09:52 Mostly Cloudy 73 23 64 18 74 74 ENE 5 7 30.24 1024 10 16.09344 0 0
10:52 am 10:52 Mostly Cloudy 79 26 61 16 54 54 N 5 7 30.24 1024 10 16.09344 0 0
11:52 am 11:52 Mostly Cloudy 81 27 57 14 45 45 N 5 7 30.24 1024 10 16.09344 0 0
12:52 pm 12:52 Mostly Cloudy 84 29 54 12 35 35 NE 7 11 30.21 1023 10 16.09344 0 0
1:52 pm 13:52 Mostly Cloudy 84 29 50 10 31 31 Calm 30.21 1023 10 16.09344 0 0
2:52 pm 14:52 Mostly Cloudy 86 30 50 10 29 29 N 5 7 30.18 1022 10 16.09344 0 0
3:52 pm 15:52 Mostly Cloudy 86 30 50 10 29 29 N 6 9 30.18 1022 10 16.09344 0 0
4:52 pm 16:52 Partly Cloudy 84 29 52 11 33 33 E 8 13 30.15 1021 10 16.09344 0 0
5:52 pm 17:52 Mostly Cloudy 84 29 50 10 31 31 E 9 15 30.15 1021 10 16.09344 0 0
6:52 pm 18:52 Partly Cloudy 82 28 54 12 37 37 ESE 7 11 30.15 1021 10 16.09344 0 0
7:52 pm 19:52 Partly Cloudy 79 26 55 13 45 45 SE 3 6 30.15 1021 10 16.09344 0 0
8:52 pm 20:52 Partly Cloudy 75 24 57 14 54 54 SSE 5 7 30.15 1021 10 16.09344 0 0
9:52 pm 21:52 Clear 75 24 59 15 57 57 S 5 7 30.15 1021 10 16.09344 0 0
10:52 pm 22:52 Mostly Clear 75 24 61 16 61 61 S 3 6 30.15 1021 10 16.09344 0 0
11:52 pm 23:52 Mostly Clear 73 23 61 16 65 65 Calm 30.15 1021 10 16.09344 0 0

Powered by AerisWeather